Flight Track Log - Related Links

Times and Time Zones

All times are in EDT time to prevent confusion due to time zone crossing. See the DAL6241 flight status page for this flight to view local times or setup timezone preferences in your user account.

Time Position Orientation Groundspeed Altitude Reporting Facility
EDT Latitude Longitude Course Direction KTS MPH feet Rate Location/Type
06:11AM 34.3381 -77.8606 North 164 189 4,600  Level Washington Center
06:12AM 34.4114 -77.8500 North 217 250 7,500 3,282 Climbing Washington Center
06:13AM 34.4886 -77.8447 North 252 290 11,000 2,975 Climbing Washington Center
06:14AM 34.5764 -77.8369 North 287 330 13,400 2,311 Climbing Washington Center
06:15AM 34.6767 -77.8272 North 327 376 15,700 2,370 Climbing Washington Center
06:16AM 34.8627 -77.8167 North  Level FlightAware Approximate
06:16AM 34.7792 -77.8172 North 351 404 18,100  Level Washington Center
06:17AM 34.8711 -77.8072 North 363 418 20,300 2,083 Climbing Washington Center
06:18AM 34.9800 -77.7950 North 373 429 22,300 1,934 Climbing Washington Center
06:19AM 35.0947 -77.7853 North 391 450 24,200 1,918 Climbing Washington Center
06:20AM 35.2097 -77.7756 North 402 463 26,200 1,881 Climbing Washington Center
06:21AM 35.3247 -77.7611 North 407 468 27,900 1,373 Climbing Washington Center
06:22AM 35.4458 -77.7517 North 414 476 28,900 1,122 Climbing Washington Center
06:23AM 35.5692 -77.7394 North 431 496 30,200 1,311 Climbing Washington Center
06:24AM 35.6925 -77.7300 North 437 503 31,500 1,475 Climbing Washington Center
06:25AM 35.8181 -77.7181 North 442 509 33,100 1,525 Climbing Washington Center
06:26AM 35.9392 -77.7058 North 442 509 34,600 958 Climbing Washington Center
06:27AM 36.0567 -77.6706 14° North 437 503 35,000 200 Climbing Washington Center
06:28AM 36.1703 -77.6222 19° North 425 489 35,000  Level Washington Center
06:29AM 36.2794 -77.5733 20° North 420 483 35,000  Level Washington Center
06:30AM 36.3908 -77.5272 18° North 420 483 35,000  Level Washington Center
06:31AM 36.5022 -77.4783 19° North 415 478 35,000  Level Washington Center
06:32AM 36.6136 -77.4317 19° North 415 478 35,000  Level Washington Center
06:33AM 36.7228 -77.3825 20° North 415 478 35,000  Level Washington Center
06:34AM 36.8361 -77.3333 19° North 415 478 35,000  Level Washington Center
06:35AM 36.9472 -77.2864 19° North 415 478 35,000  Level Washington Center
06:36AM 37.0564 -77.2367 20° North 415 478 35,000  Level Washington Center
06:37AM 37.1678 -77.1894 19° North 415 478 35,000  Level Washington Center
06:38AM 37.2769 -77.1397 20° North 415 478 35,000  Level Washington Center
06:39AM 37.3903 -77.0686 26° Northeast 410 472 35,000  Level Washington Center
06:40AM 37.4831 -77.0025 29° Northeast 415 478 35,000  Level Washington Center
06:41AM 37.5964 -76.9206 30° Northeast 427 491 35,000  Level Washington Center
06:42AM 37.6933 -76.8461 31° Northeast 422 486 35,000 -541 Level Washington Center
06:43AM 37.7961 -76.7717 30° Northeast 422 486 33,900 -1,424 Descending Washington Center
06:44AM 37.9011 -76.6919 31° Northeast 422 486 32,200 -1,613 Descending Washington Center
06:45AM 38.0042 -76.6142 31° Northeast 422 486 30,700 -1,377 Descending Washington Center
06:46AM 38.1047 -76.5392 30° Northeast 427 491 29,400 -1,388 Descending Washington Center
06:47AM 38.2033 -76.4636 31° Northeast 417 480 27,900 -1,190 Descending Washington Center
06:48AM 38.2978 -76.3908 31° Northeast 406 467 27,000 -454 Descending Washington Center
06:49AM 38.3794 -76.3175 35° Northeast 401 461 27,000  Level Washington Center
06:50AM 38.4758 -76.2256 37° Northeast 406 467 27,000  Level Washington Center
06:51AM 38.5806 -76.1281 36° Northeast 416 479 27,000  Level Washington Center
06:52AM 38.6686 -76.0517 34° Northeast 421 484 27,000 -50 Level Washington Center
06:53AM 38.7647 -75.9617 36° Northeast 426 490 26,900  Descending Washington Center
06:54AM 38.8608 -75.8717 36° Northeast 426 490 27,000 50 Climbing Washington Center
06:55AM 38.9547 -75.7839 36° Northeast 426 490 27,000  Level Washington Center
06:56AM 39.0486 -75.6933 37° Northeast 426 490 27,000 -146 Level Washington Center
06:57AM 39.1425 -75.6050 36° Northeast 426 490 26,700 -958 Descending Washington Center
06:58AM 39.2322 -75.5139 38° Northeast 420 483 25,100 -1,500 Descending Washington Center
06:59AM 39.3258 -75.4333 34° Northeast 406 467 23,700 -1,377 Descending Washington Center
07:00AM 39.4175 -75.3525 34° Northeast 401 461 22,300 -1,436 Descending Washington Center
07:01AM 39.5047 -75.2769 34° Northeast 395 455 20,900 -1,424 Descending Washington Center
07:02AM 39.5900 -75.1983 35° Northeast 384 442 19,500 -1,426 Descending Washington Center
07:03AM 39.6792 -75.1144 36° Northeast 374 430 18,000 -1,279 Descending Washington Center
07:04AM 39.7644 -75.0408 34° Northeast 362 417 16,900 -1,210 Descending Washington Center
07:05AM 39.8472 -74.9672 34° Northeast 356 410 15,600 -1,583 Descending Washington Center
07:06AM 39.9500 -74.8500 41° Northeast 352 405 13,100 -1,685 Descending New York TRACON
07:07AM 40.0167 -74.7500 49° Northeast 347 399 11,500 -1,500 Descending New York TRACON
07:08AM 40.0833 -74.6667 44° Northeast 339 390 10,100 -789 Descending New York TRACON
07:09AM 40.1333 -74.5833 52° Northeast 334 384 10,000 -56 Descending New York TRACON
07:10AM 40.2000 -74.5000 44° Northeast 330 380 10,000  Level New York TRACON
07:11AM 40.2667 -74.4333 37° Northeast 323 372 10,000 -100 Level New York TRACON
07:12AM 40.3333 -74.3500 44° Northeast 279 321 9,800 -1,000 Descending New York TRACON
07:13AM 40.3833 -74.3000 37° Northeast 259 298 8,100 -1,474 Descending New York TRACON
07:14AM 40.4333 -74.2500 37° Northeast 259 298 7,000 -600 Descending New York TRACON
07:15AM 40.4833 -74.1833 45° Northeast 257 296 6,900 -939 Descending New York TRACON
07:16AM 40.5500 -74.1500 21° North 250 288 5,200 -1,513 Descending New York TRACON
07:17AM 40.6000 -74.1000 37° Northeast 248 285 4,000 -632 Descending New York TRACON
07:18AM 40.6667 -74.0667 21° North 248 285 4,000  Level New York TRACON
07:19AM 40.7333 -74.0333 21° North 251 289 4,000  Level New York TRACON
07:20AM 40.7833 -74.0000 27° Northeast 253 291 4,000  Level New York TRACON
07:21AM 40.8500 -73.9500 30° Northeast 247 284 4,000  Level New York TRACON
07:22AM 40.9000 -73.9000 37° Northeast 247 284 4,000 -500 Level New York TRACON
07:23AM 40.9167 -73.8333 72° East 240 276 3,000 -991 Descending New York TRACON
07:23AM 40.9000 -73.7833 114° Southeast 195 224 2,100 -626 Descending New York TRACON
07:24AM 40.8500 -73.8167 207° Southwest 171 197 1,800 -550 Descending New York TRACON
07:25AM 40.8167 -73.8500 217° Southwest 136 157 1,000 -800 Descending New York TRACON

Login

Don't have an account? Register now (free) for customized features, flight alerts, and more!